FW8346 Weather Reports


Display with metric or nautical units.
time (UTC)temp
F
wind
direction
speed
MPH
gust
MPH
rain 1hr
in
rain 24hr
in
rain mn
in
humidity
%
barometer
mb
20260503012949 61 131 0.0 3.0 0.00 0.00 0.00 40 1008.6
20260503012448 61 271 0.0 3.0 0.00 0.00 0.00 40 1008.6
20260503012222 62 269 1.0 5.0 0.00 0.00 0.00 40 1008.5
20260503011448 62 313 2.0 5.0 0.00 0.00 0.00 40 1008.6
20260503010950 62 264 2.0 7.0 0.00 0.00 0.00 41 1008.5
20260503010448 62 268 2.0 9.0 0.00 0.00 0.00 40 1008.6
20260503005949 61 326 2.0 9.0 0.00 0.00 0.00 43 1008.6
20260503005445 61 298 1.0 5.0 0.00 0.00 0.00 42 1008.6
20260503004946 61 159 0.0 4.0 0.00 0.00 0.00 42 1008.5
20260503004444 62 215 0.0 3.0 0.00 0.00 0.00 41 1008.5
20260503004335 62 349 2.0 12.0 0.00 0.00 0.00 39 1008.4
20260503004225 62 153 2.0 12.0 0.00 0.00 0.00 41 1008.5
20260503002945 62 171 1.0 7.0 0.00 0.00 0.00 43 1008.6
20260503002444 62 321 1.0 7.0 0.00 0.00 0.00 39 1008.5
20260503001948 62 206 1.0 7.0 0.00 0.00 0.00 40 1008.8
20260503001446 63 304 1.0 7.0 0.00 0.00 0.00 40 1008.8
20260503000941 63 283 1.0 7.0 0.00 0.00 0.00 39 1008.9
20260503000440 63 263 1.0 10.0 0.00 0.00 0.00 38 1008.9
20260503000211 63 165 1.0 10.0 0.00 0.00 0.00 39 1008.9
20260502235440 63 296 1.0 4.0 0.00 0.00 0.00 38 1008.9
20260502235212 63 327 0.0 4.0 0.00 0.00 0.00 38 1009.0
20260502234441 63 336 0.0 3.0 0.00 0.00 0.00 38 1009.0
20260502233942 64 307 1.0 5.0 0.00 0.00 0.00 38 1008.9
20260502233441 64 209 1.0 7.0 0.00 0.00 0.00 37 1008.9
20260502232942 64 295 2.0 7.0 0.00 0.00 0.00 37 1009.0
20260502232435 64 315 1.0 6.0 0.00 0.00 0.00 37 1009.0
20260502231928 64 300 0.0 4.0 0.00 0.00 0.00 38 1009.1
20260502231422 64 238 0.0 3.0 0.00 0.00 0.00 37 1009.1
20260502230917 64 4 1.0 6.0 0.00 0.00 0.00 37 1009.2
20260502230411 64 276 1.0 6.0 0.00 0.00 0.00 37 1009.2
20260502225905 64 226 1.0 4.0 0.00 0.00 0.00 37 1009.2
20260502225359 64 155 1.0 4.0 0.00 0.00 0.00 36 1009.2
20260502225125 64 307 1.0 4.0 0.00 0.00 0.00 36 1009.4
20260502224348 64 287 1.0 4.0 0.00 0.00 0.00 36 1009.4
20260502224120 64 328 2.0 6.0 0.00 0.00 0.00 36 1009.5
20260502223619 64 319 4.0 13.0 0.00 0.00 0.00 36 1009.6
20260502222847 64 293 5.0 13.0 0.00 0.00 0.00 36 1009.6
20260502222348 64 335 1.0 10.0 0.00 0.00 0.00 36 1009.8
20260502222120 64 265 1.0 7.0 0.00 0.00 0.00 38 1009.8
20260502221346 64 234 1.0 8.0 0.00 0.00 0.00 38 1009.8
20260502220853 64 191 1.0 9.0 0.00 0.00 0.00 37 1009.9
20260502220848 64 218 1.0 8.0 0.00 0.00 0.00 37 1009.9
20260502215843 64 283 2.0 9.0 0.00 0.00 0.00 37 1009.8
20260502215342 64 184 2.0 8.0 0.00 0.00 0.00 38 1009.9
20260502214843 64 143 2.0 8.0 0.00 0.00 0.00 37 1010.0
20260502214341 64 219 1.0 6.0 0.00 0.00 0.00 36 1010.1
20260502213845 65 223 1.0 8.0 0.00 0.00 0.00 36 1010.2
20260502213840 64 259 1.0 6.0 0.00 0.00 0.00 36 1010.1
20260502212841 65 45 2.0 8.0 0.00 0.00 0.00 36 1010.2
20260502212343 65 268 3.0 9.0 0.00 0.00 0.00 36 1010.2
20260502211842 64 302 3.0 10.0 0.00 0.00 0.00 36 1010.3
20260502211336 64 220 3.0 10.0 0.00 0.00 0.00 36 1010.4
20260502210830 64 246 3.0 7.0 0.00 0.00 0.00 35 1010.4
20260502210324 64 234 3.0 8.0 0.00 0.00 0.00 35 1010.5
20260502205818 64 230 2.0 8.0 0.00 0.00 0.00 35 1010.7
20260502205312 64 105 2.0 8.0 0.00 0.00 0.00 35 1010.8
20260502204806 64 353 2.0 6.0 0.00 0.00 0.00 35 1010.9
20260502204300 64 231 2.0 8.0 0.00 0.00 0.00 34 1011.0
20260502203754 64 219 2.0 8.0 0.00 0.00 0.00 35 1011.1
20260502203248 65 323 2.0 10.0 0.00 0.00 0.00 34 1011.2
20260502203005 65 216 3.0 11.0 0.00 0.00 0.00 35 1011.4
20260502202841 65 165 3.0 10.0 0.00 0.00 0.00 34 1011.3
20260502202339 65 111 3.0 11.0 0.00 0.00 0.00 34 1011.4
20260502201224 65 160 3.0 10.0 0.00 0.00 0.00 35 1011.6
20260502200949 64 289 3.0 10.0 0.00 0.00 0.00 34 1011.7
20260502200212 64 49 3.0 10.0 0.00 0.00 0.00 34 1011.7
20260502195706 63 136 2.0 8.0 0.00 0.00 0.00 35 1011.8
20260502195200 63 302 2.0 8.0 0.00 0.00 0.00 37 1011.9
20260502194926 62 55 2.0 15.0 0.00 0.00 0.00 36 1012.0
20260502194148 62 182 4.0 15.0 0.00 0.00 0.00 35 1012.2
20260502193643 62 143 3.0 11.0 0.00 0.00 0.00 35 1012.3
20260502193136 63 295 2.0 9.0 0.00 0.00 0.00 34 1012.4
20260502192630 62 262 3.0 9.0 0.00 0.00 0.00 35 1012.4
20260502192125 62 290 4.0 13.0 0.00 0.00 0.00 34 1012.4
20260502191618 62 285 4.0 13.0 0.00 0.00 0.00 34 1012.6
20260502191112 63 231 4.0 10.0 0.00 0.00 0.00 34 1012.6
20260502190606 63 263 3.0 9.0 0.00 0.00 0.00 33 1012.7
20260502190100 63 282 3.0 10.0 0.00 0.00 0.00 34 1012.9
20260502185554 62 298 3.0 10.0 0.00 0.00 0.00 34 1013.0
20260502185319 62 94 2.0 10.0 0.00 0.00 0.00 34 1013.1
20260502184542 62 295 2.0 10.0 0.00 0.00 0.00 33 1013.2
20260502184036 62 77 2.0 10.0 0.00 0.00 0.00 34 1013.1
20260502183801 62 274 3.0 10.0 0.00 0.00 0.00 35 1013.4
20260502183024 62 253 3.0 9.0 0.00 0.00 0.00 34 1013.5
20260502182518 61 292 4.0 10.0 0.00 0.00 0.00 36 1013.5
20260502182243 61 105 4.0 11.0 0.00 0.00 0.00 35 1013.7
20260502181510 62 270 3.0 11.0 0.00 0.00 0.00 34 1013.7
20260502181501 62 86 2.0 7.0 0.00 0.00 0.00 33 1013.8
20260502180456 61 245 2.0 9.0 0.00 0.00 0.00 34 1013.9
20260502170451 59 257 4.0 10.0 0.00 0.00 0.00 33 1014.9
20260502163951 58 97 3.0 10.0 0.00 0.00 0.00 35 1015.1
20260502163715 58 190 3.0 10.0 0.00 0.00 0.00 34 1015.2
20260502162939 58 260 3.0 9.0 0.00 0.00 0.00 35 1015.3
20260502162433 58 122 2.0 9.0 0.00 0.00 0.00 35 1015.4
20260502161927 58 203 2.0 9.0 0.00 0.00 0.00 36 1015.4
20260502161653 57 37 3.0 9.0 0.00 0.00 0.00 34 1015.6
20260502160914 57 217 3.0 9.0 0.00 0.00 0.00 34 1015.7
20260502160409 57 264 2.0 9.0 0.00 0.00 0.00 36 1015.8
20260502152334 55 321 2.0 7.0 0.00 0.00 0.00 34 1016.3
20260502151833 55 341 2.0 7.0 0.00 0.00 0.00 37 1016.4
20260502151332 55 319 3.0 7.0 0.00 0.00 0.00 36 1016.4
20260502151104 55 241 3.0 9.0 0.00 0.00 0.00 37 1016.5
20260502150333 55 279 3.0 9.0 0.00 0.00 0.00 37 1016.5
20260502130553 46 233 0.0 2.0 0.00 0.00 0.00 55 1017.3
20260502123318 42 221 0.0 0.0 0.00 0.00 0.00 59 1017.4
20260502123050 42 228 0.0 0.0 0.00 0.00 0.00 61 1017.3
20260502122548 42 236 0.0 1.0 0.00 0.00 0.00 62 1017.3
20260502121818 41 249 0.0 1.0 0.00 0.00 0.00 63 1017.3
20260502121319 40 246 0.0 1.0 0.00 0.00 0.00 64 1017.3
20260502121051 40 236 0.0 0.0 0.00 0.00 0.00 65 1017.3
20260502120313 40 236 0.0 0.0 0.00 0.00 0.00 65 1017.3
20260502115813 39 237 0.0 0.0 0.00 0.00 0.00 68 1017.2
20260502115314 37 237 0.0 0.0 0.00 0.00 0.00 70 1017.2
20260502114818 36 236 0.0 0.0 0.00 0.00 0.00 72 1017.2
20260502114813 37 236 0.0 0.0 0.00 0.00 0.00 71 1017.2
20260502114043 35 236 0.0 0.0 0.00 0.00 0.00 74 1017.3
20260502113314 35 236 0.0 0.0 0.00 0.00 0.00 75 1017.3
20260502112812 34 236 0.0 0.0 0.00 0.00 0.00 77 1017.3
20260502112313 33 236 0.0 0.0 0.00 0.00 0.00 79 1017.2
20260502111811 32 236 0.0 0.0 0.00 0.00 0.00 79 1017.2
20260502111313 31 236 0.0 0.0 0.00 0.00 0.00 81 1017.3
20260502110812 31 238 0.0 0.0 0.00 0.00 0.00 80 1017.3
20260502110311 31 238 0.0 0.0 0.00 0.00 0.00 79 1017.3
20260502105813 31 239 0.0 0.0 0.00 0.00 0.00 79 1017.2
20260502105313 31 239 0.0 0.0 0.00 0.00 0.00 78 1017.3
20260502104811 32 239 0.0 0.0 0.00 0.00 0.00 77 1017.3
20260502104308 32 239 0.0 1.0 0.00 0.00 0.00 77 1017.3
20260502103809 32 239 0.0 1.0 0.00 0.00 0.00 77 1017.3
20260502103540 32 239 0.0 0.0 0.00 0.00 0.00 76 1017.3
20260502102808 32 239 0.0 0.0 0.00 0.00 0.00 77 1017.2
20260502102307 32 239 0.0 0.0 0.00 0.00 0.00 77 1017.3
20260502102038 32 239 0.0 0.0 0.00 0.00 0.00 79 1017.3
20260502101307 32 239 0.0 0.0 0.00 0.00 0.00 80 1017.4
20260502100805 32 239 0.0 1.0 0.00 0.00 0.00 80 1017.4
20260502100305 32 240 0.0 1.0 0.00 0.00 0.00 79 1017.4
20260502091256 33 234 0.0 0.0 0.00 0.00 0.00 78 1017.4
20260502090756 33 234 0.0 0.0 0.00 0.00 0.00 78 1017.3
20260502090249 33 234 0.0 0.0 0.00 0.00 0.00 79 1017.3
20260502071310 36 231 0.0 0.0 0.00 0.00 0.00 70 1017.6
20260502070532 36 231 0.0 0.0 0.00 0.00 0.00 75 1017.6
20260502070026 36 231 0.0 0.0 0.00 0.00 0.00 73 1017.6
20260502065751 36 231 0.0 0.0 0.00 0.00 0.00 73 1017.6
20260502065014 36 231 0.0 0.0 0.00 0.00 0.00 67 1017.7
20260502064508 35 231 0.0 0.0 0.00 0.00 0.00 66 1017.6
20260502064002 35 231 0.0 0.0 0.00 0.00 0.00 66 1017.6
20260502063456 35 232 0.0 0.0 0.00 0.00 0.00 66 1017.7
20260502062949 36 232 0.0 0.0 0.00 0.00 0.00 66 1017.6
20260502062445 36 232 0.0 0.0 0.00 0.00 0.00 65 1017.6
20260502061938 36 233 0.0 0.0 0.00 0.00 0.00 65 1017.6
20260502061431 35 235 0.0 0.0 0.00 0.00 0.00 66 1017.6
20260502060926 35 235 0.0 1.0 0.00 0.00 0.00 65 1017.6
20260502060420 36 235 0.0 1.0 0.00 0.00 0.00 65 1017.6
20260502055914 36 235 0.0 1.0 0.00 0.00 0.00 65 1017.6
20260502055408 36 236 0.0 1.0 0.00 0.00 0.00 64 1017.6
20260502054902 36 229 0.0 1.0 0.00 0.00 0.00 63 1017.6
20260502054356 36 226 0.0 1.0 0.00 0.00 0.00 63 1017.6
20260502053851 36 229 0.0 0.0 0.00 0.00 0.00 63 1017.6
20260502053845 37 233 0.0 0.0 0.00 0.00 0.00 63 1017.7
20260502052838 37 232 0.0 1.0 0.00 0.00 0.00 61 1017.7
20260502052332 37 231 1.0 1.0 0.00 0.00 0.00 60 1017.7
20260502051826 38 231 1.0 1.0 0.00 0.00 0.00 60 1017.7
20260502051320 38 241 0.0 1.0 0.00 0.00 0.00 59 1017.7
20260502050814 39 248 0.0 0.0 0.00 0.00 0.00 60 1017.7
20260502050309 39 248 0.0 0.0 0.00 0.00 0.00 61 1017.7
20260502050032 40 248 0.0 0.0 0.00 0.00 0.00 60 1017.7
20260502045256 40 248 0.0 0.0 0.00 0.00 0.00 54 1017.7
20260502044749 40 248 0.0 0.0 0.00 0.00 0.00 54 1017.7
20260502044516 41 248 0.0 0.0 0.00 0.00 0.00 54 1017.7
20260502043738 41 248 0.0 0.0 0.00 0.00 0.00 52 1017.7
20260502043232 41 248 0.0 0.0 0.00 0.00 0.00 52 1017.7
20260502042957 41 248 0.0 0.0 0.00 0.00 0.00 52 1017.7
20260502042450 41 248 0.0 0.0 0.00 0.00 0.00 52 1017.7
20260502041714 42 250 0.0 0.0 0.00 0.00 0.00 52 1017.7
20260502041207 42 251 0.0 0.0 0.00 0.00 0.00 51 1017.7
20260502040708 42 254 0.0 0.0 0.00 0.00 0.00 51 1017.7
20260502040208 42 237 0.0 0.0 0.00 0.00 0.00 51 1017.7
20260502035938 42 233 0.0 0.0 0.00 0.00 0.00 50 1017.7
20260502035206 42 238 0.0 1.0 0.00 0.00 0.00 50 1017.7
20260502034933 42 233 0.0 1.0 0.00 0.00 0.00 50 1017.7
20260502034203 42 250 0.0 1.0 0.00 0.00 0.00 50 1017.7
20260502033702 42 240 0.0 1.0 0.00 0.00 0.00 49 1017.7
20260502033201 42 231 0.0 1.0 0.00 0.00 0.00 48 1017.7
20260502032701 43 233 0.0 0.0 0.00 0.00 0.00 47 1017.8
20260502032431 43 233 0.0 1.0 0.00 0.00 0.00 47 1017.8
20260502031700 43 235 0.0 1.0 0.00 0.00 0.00 47 1017.7
20260502031202 43 233 0.0 0.0 0.00 0.00 0.00 46 1017.7
20260502030700 43 233 0.0 0.0 0.00 0.00 0.00 45 1017.7
20260502030202 44 233 0.0 0.0 0.00 0.00 0.00 46 1017.7
20260502025658 44 241 0.0 2.0 0.00 0.00 0.00 45 1017.7
20260502025156 44 250 0.0 2.0 0.00 0.00 0.00 44 1017.7
20260502024657 44 301 0.0 1.0 0.00 0.00 0.00 44 1017.7
20260502024156 44 242 0.0 1.0 0.00 0.00 0.00 43 1017.7
20260502023927 44 245 0.0 1.0 0.00 0.00 0.00 43 1017.7
20260502023428 44 250 0.0 1.0 0.00 0.00 0.00 43 1017.7
20260502022658 44 233 0.0 1.0 0.00 0.00 0.00 43 1017.7
20260502022427 45 238 0.0 1.0 0.00 0.00 0.00 42 1017.7
20260502021929 45 238 0.0 0.0 0.00 0.00 0.00 41 1017.7
20260502021154 45 243 0.0 0.0 0.00 0.00 0.00 42 1017.6
20260502020653 45 269 0.0 0.0 0.00 0.00 0.00 41 1017.6
20260502020154 46 269 0.0 0.0 0.00 0.00 0.00 41 1017.5
20260502015652 46 269 0.0 0.0 0.00 0.00 0.00 40 1017.5
20260502015152 46 245 0.0 0.0 0.00 0.00 0.00 41 1017.5
20260502014652 47 245 0.0 0.0 0.00 0.00 0.00 40 1017.4
20260502014158 47 245 0.0 1.0 0.00 0.00 0.00 39 1017.3
20260502014153 47 245 0.0 0.0 0.00 0.00 0.00 39 1017.4